TimeMST,TemperatureF,Dew PointF,Humidity,Sea Level PressureIn,VisibilityMPH,Wind Direction,Wind SpeedMPH,Gust SpeedMPH,PrecipitationIn,Events,Conditions,WindDirDegrees,DateUTC
12:53 AM,28.9,23.0,78,29.73,10.0,SSW,9.2,-,N/A,,Clear,210,2013-01-10 07:53:00
1:53 AM,36.0,19.0,50,29.70,10.0,Calm,Calm,-,N/A,,Clear,0,2013-01-10 08:53:00
2:53 AM,30.9,19.0,61,29.67,10.0,Calm,Calm,-,N/A,,Clear,0,2013-01-10 09:53:00
3:53 AM,28.9,19.9,69,29.64,10.0,NNE,4.6,-,N/A,,Clear,20,2013-01-10 10:53:00
4:53 AM,26.1,19.9,78,29.62,10.0,WNW,3.5,-,N/A,,Clear,300,2013-01-10 11:53:00
5:53 AM,25.0,19.9,81,29.61,10.0,Variable,3.5,-,N/A,,Clear,0,2013-01-10 12:53:00
6:53 AM,30.0,21.0,69,29.57,10.0,NW,12.7,19.6,N/A,,Clear,320,2013-01-10 13:53:00
7:53 AM,28.0,21.0,75,29.55,10.0,NW,6.9,-,N/A,,Clear,320,2013-01-10 14:53:00
8:53 AM,26.1,21.0,81,29.56,10.0,Calm,Calm,-,N/A,,Clear,0,2013-01-10 15:53:00
9:53 AM,32.0,21.9,66,29.55,10.0,WSW,6.9,-,N/A,,Clear,250,2013-01-10 16:53:00
10:53 AM,34.0,21.9,61,29.55,10.0,North,10.4,17.3,N/A,,Clear,360,2013-01-10 17:53:00
11:53 AM,41.0,21.9,47,29.57,10.0,WNW,15.0,-,N/A,,Clear,290,2013-01-10 18:53:00
12:53 PM,46.0,19.9,35,29.53,10.0,Calm,Calm,-,N/A,,Clear,0,2013-01-10 19:53:00
1:53 PM,45.0,23.0,42,29.50,10.0,NNW,5.8,-,N/A,,Clear,330,2013-01-10 20:53:00
2:53 PM,44.1,26.1,49,29.52,10.0,NW,5.8,-,N/A,,Clear,320,2013-01-10 21:53:00
3:53 PM,41.0,25.0,53,29.53,10.0,WNW,8.1,-,N/A,,Clear,290,2013-01-10 22:53:00
4:53 PM,36.0,24.1,62,29.56,10.0,WNW,15.0,-,N/A,,Clear,290,2013-01-10 23:53:00
5:53 PM,28.9,26.1,89,29.60,10.0,WNW,19.6,-,N/A,,Clear,300,2013-01-11 00:53:00
6:01 PM,28.4,26.6,93,29.50,10.0,NW,19.6,-,N/A,,Scattered Clouds,310,2013-01-11 01:01:00
6:13 PM,28.4,26.6,93,29.51,10.0,NW,19.6,25.3,N/A,,Mostly Cloudy,310,2013-01-11 01:13:00
6:21 PM,28.4,26.6,93,29.51,10.0,WNW,19.6,-,N/A,,Overcast,300,2013-01-11 01:21:00
6:53 PM,28.0,26.1,92,29.61,10.0,NW,16.1,-,N/A,,Overcast,310,2013-01-11 01:53:00
7:38 PM,26.6,24.8,93,29.52,1.8,WNW,12.7,-,N/A,,Overcast,300,2013-01-11 02:38:00
7:53 PM,26.1,25.0,96,29.63,2.0,NW,10.4,-,N/A,,Overcast,320,2013-01-11 02:53:00
8:30 PM,26.6,24.8,93,29.53,1.8,NW,12.7,-,N/A,,Overcast,310,2013-01-11 03:30:00
8:50 PM,24.8,24.8,100,29.53,2.5,WNW,19.6,-,N/A,,Overcast,300,2013-01-11 03:50:00
8:53 PM,25.0,24.1,96,29.65,3.0,WNW,16.1,-,N/A,,Overcast,300,2013-01-11 03:53:00
9:24 PM,24.8,23.0,93,29.55,6.0,NW,17.3,-,N/A,,Overcast,310,2013-01-11 04:24:00
9:49 PM,24.8,21.2,86,29.55,10.0,NW,12.7,-,N/A,,Overcast,320,2013-01-11 04:49:00
9:53 PM,24.1,21.9,91,29.66,9.0,NW,17.3,-,N/A,,Overcast,320,2013-01-11 04:53:00
10:53 PM,21.0,19.0,92,29.68,6.0,NNW,19.6,25.3,N/A,,Overcast,330,2013-01-11 05:53:00
11:53 PM,19.0,16.0,88,29.69,10.0,NNW,20.7,26.5,N/A,,Overcast,330,2013-01-11 06:53:00